Weather History for West Palm Beach, FL

Change the Weather History Date:

Tuesday, October 23, 2012

  Actual Average Record
Temperature  
Mean Temperature 79 °F 77 °F  
Max Temperature 85 °F 84 °F 92 °F (1959)
Min Temperature 73 °F 70 °F 47 °F (1923)
Degree Days  
Heating Degree Days 0 0  
Month to date heating degree days 0 0  
Since 1 July heating degree days 0 0  
Cooling Degree Days 14 12  
Month to date cooling degree days 377 323  
Year to date cooling degree days 3794 3531  
Growing Degree Days 30 (Base 50)    
Moisture  
Dew Point 66 °F    
Average Humidity 61    
Maximum Humidity 74    
Minimum Humidity 48    
Precipitation  
Precipitation 0.04 in 0.16 in 8.47 in (1933)
Month to date precipitation 7.55 3.94  
Year to date precipitation 74.95 53.01  
Snow  
Snow 0.00 in - - ()
Month to date snowfall 0.0  
Since 1 July snowfall 0.0  
Since 1 September snowfall 0.0  
Snow Depth 0.00 in    
Sea Level Pressure  
Sea Level Pressure 29.96 in    
Wind  
Wind Speed 15 mph (ENE)    
Max Wind Speed 24 mph    
Max Gust Speed 32 mph    
Visibility 10 miles    
Events Rain    
T = Trace of Precipitation, MM = Missing Value Source: NWS Daily Summary

Daily Weather History Graph

Daily Weather History Graph

Search for Another Location

Airport:

Trip Planner

Search our weather history database for the weather conditions in past years. The results will help you decide how hot, cold, wet, or windy it might be!

Date:

Astronomy

Oct. 23, 2012 Rise Set
Actual Time 7:24 AM EDT 6:44 PM EDT
Civil Twilight 7:00 AM EDT 7:07 PM EDT
Nautical Twilight 6:33 AM EDT 7:35 PM EDT
Astronomical Twilight 6:06 AM EDT 8:02 PM EDT
Moon 2:58 PM EDT (10/23) 1:47 AM EDT (10/23)
Length of Visible Light 12h 06m
Length of Day
11h 19m
Waxing Gibbous, 66% of the Moon is Illuminated
Oct 23
Waxing Gibbous
Oct 29
Full
Nov 6
Last Quarter
Nov 13
New
Nov 20
First Quarter

Hourly Weather History & Observations

Time (EDT) Temp. Heat Index Dew Point Humidity Pressure Visibility Wind Dir Wind Speed Gust Speed Precip Events Conditions
12:53 AM 79.0 °F - 62.1 °F 56% 29.99 in 10.0 mi ENE 12.7 mph - N/A   Scattered Clouds
1:53 AM 77.0 °F - 62.1 °F 60% 29.98 in 10.0 mi ENE 13.8 mph - N/A   Scattered Clouds
2:53 AM 79.0 °F - 57.9 °F 48% 29.97 in 10.0 mi ENE 13.8 mph 20.7 mph N/A   Partly Cloudy
3:53 AM 79.0 °F - 59.0 °F 50% 29.96 in 10.0 mi ENE 15.0 mph - N/A   Partly Cloudy
4:53 AM 78.1 °F - 63.0 °F 60% 29.95 in 10.0 mi East 11.5 mph - N/A   Partly Cloudy
5:53 AM 78.1 °F - 63.0 °F 60% 29.94 in 10.0 mi ENE 9.2 mph - N/A   Partly Cloudy
6:53 AM 78.1 °F - 63.0 °F 60% 29.96 in 10.0 mi ENE 11.5 mph - N/A   Scattered Clouds
7:53 AM 78.1 °F - 63.0 °F 60% 29.96 in 10.0 mi East 10.4 mph - N/A   Scattered Clouds
8:53 AM 79.0 °F - 64.0 °F 60% 29.98 in 10.0 mi East 11.5 mph - N/A   Scattered Clouds
9:53 AM 82.0 °F 83.1 °F 63.0 °F 52% 29.99 in 10.0 mi East 15.0 mph 20.7 mph N/A   Scattered Clouds
10:53 AM 82.9 °F 85.0 °F 66.0 °F 56% 29.99 in 10.0 mi ENE 16.1 mph 23.0 mph N/A   Scattered Clouds
11:53 AM 82.9 °F 85.8 °F 68.0 °F 60% 29.99 in 10.0 mi East 18.4 mph 23.0 mph N/A   Scattered Clouds
12:53 PM 84.0 °F 87.8 °F 69.1 °F 61% 29.97 in 10.0 mi East 17.3 mph 26.5 mph N/A   Mostly Cloudy
1:53 PM 84.0 °F 87.8 °F 69.1 °F 61% 29.94 in 10.0 mi ENE 17.3 mph 25.3 mph N/A   Mostly Cloudy
2:53 PM 84.0 °F 86.5 °F 66.9 °F 56% 29.93 in 10.0 mi ENE 19.6 mph 24.2 mph N/A   Mostly Cloudy
3:53 PM 82.9 °F 85.8 °F 68.0 °F 60% 29.93 in 10.0 mi East 18.4 mph 26.5 mph N/A   Mostly Cloudy
4:53 PM 81.0 °F 84.1 °F 69.1 °F 67% 29.93 in 10.0 mi ENE 16.1 mph - N/A   Mostly Cloudy
5:53 PM 81.0 °F 84.1 °F 69.1 °F 67% 29.94 in 10.0 mi ENE 16.1 mph 25.3 mph 0.00 in Rain Light Rain
6:53 PM 80.1 °F 82.3 °F 66.9 °F 64% 29.95 in 10.0 mi ENE 15.0 mph 20.7 mph 0.00 in   Mostly Cloudy
7:53 PM 80.1 °F 82.3 °F 66.9 °F 64% 29.96 in 10.0 mi NE 13.8 mph - N/A   Mostly Cloudy
8:53 PM 80.1 °F 82.3 °F 66.9 °F 64% 29.97 in 10.0 mi ENE 13.8 mph 20.7 mph N/A   Scattered Clouds
9:53 PM 79.0 °F - 69.1 °F 72% 29.98 in 10.0 mi ENE 18.4 mph 28.8 mph 0.00 in   Mostly Cloudy
10:53 PM 78.1 °F - 69.1 °F 74% 29.98 in 10.0 mi East 15.0 mph - N/A   Mostly Cloudy
11:53 PM 73.9 °F - 71.1 °F 91% 29.99 in 10.0 mi NE 12.7 mph - 0.03 in Rain Light Rain